Location: Saint-Palais-sur-Mer
(45.6429°N, 1.0859°W)
Time: 15:22:45
(UTC+01:00)

S-56A Canister/Altair - Pass Details

Date: 14 February 2026
Orbit: 633 x 2484 km, 38.9° (Epoch: 16 March)

Event Time Altitude Azimuth Distance (km) Brightness Sun altitude
Exits shadow 06:07:03 30° 252° (WSW) 2,783 9.8 -21.7°
Maximum altitude 06:12:17 48° 199° (SSW) 2,450 9.8 -20.8°
Drops below altitude 10° 06:25:22 10° 132° (SE) 5,014 12.3 -18.5°
Sets 06:29:44 0° 127° (SE) 6,115 13.0 -17.8°
